UAL784 MMMX-KDEN

Flight info

Callsign UAL784
Flight time N/A
Altitude 37000
Route IKLAN2A IKLAN UT141 TAM/N0455F380 UJ15 CVM J21 LRD/N0446F370 J21 SAT/N0450F380 J17 PNH DCT ZIGEE NIIXX4
Aircraft B38M/M-SDE1FGHILORVWXY/HB1

Departure

Time 2026-05-08 02:35
Airport Mexico City Benito Juárez International Airport (MMMX)

Arrival

Time N/A
Airport Denver International Airport (KDEN)
Time Latitude Longitude Altitude Speed Heading
2026-05-08 01:53 19.43342 -99.08427 7303 ft 0 kts 330°
2026-05-08 02:24 19.43337 -99.08424 7303 ft 2 kts 330°
2026-05-08 02:24 19.43324 -99.08416 7303 ft 2 kts 330°
2026-05-08 02:24 19.43312 -99.08409 7303 ft 2 kts 330°
2026-05-08 02:25 19.43335 -99.08423 7303 ft 8 kts 330°
2026-05-08 02:25 19.43348 -99.08431 7303 ft 0 kts 330°
2026-05-08 02:25 19.43344 -99.08428 7303 ft 2 kts 330°
2026-05-08 02:26 19.43328 -99.08419 7303 ft 3 kts 330°
2026-05-08 02:26 19.43308 -99.08406 7303 ft 6 kts 330°
2026-05-08 02:26 19.43290 -99.08395 7303 ft 0 kts 330°
2026-05-08 02:30 19.43292 -99.08403 7303 ft 2 kts 282°
2026-05-08 02:30 19.43260 -99.08445 7302 ft 13 kts 222°
2026-05-08 02:30 19.43178 -99.08540 7302 ft 20 kts 237°
2026-05-08 02:31 19.43098 -99.08679 7302 ft 24 kts 239°
2026-05-08 02:31 19.43026 -99.08813 7301 ft 22 kts 241°
2026-05-08 02:31 19.42944 -99.08956 7302 ft 20 kts 234°
2026-05-08 02:31 19.42865 -99.09043 7302 ft 15 kts 207°
2026-05-08 02:32 19.42845 -99.09055 7302 ft 1 kts 209°
2026-05-08 02:32 19.42844 -99.09055 7302 ft 0 kts 209°
2026-05-08 02:33 19.42841 -99.09057 7302 ft 2 kts 209°
2026-05-08 02:33 19.42799 -99.09078 7302 ft 9 kts 197°
2026-05-08 02:34 19.42765 -99.09057 7303 ft 6 kts 111°
2026-05-08 02:34 19.42767 -99.09036 7303 ft 0 kts 65°
2026-05-08 02:34 19.42846 -99.08892 7303 ft 53 kts 59°
2026-05-08 02:34 19.43141 -99.08378 7301 ft 108 kts 56°
2026-05-08 02:35 19.43589 -99.07590 7371 ft 140 kts 62°
2026-05-08 02:35 19.44042 -99.06635 7756 ft 143 kts 53°
2026-05-08 02:35 19.44666 -99.05812 8337 ft 148 kts 53°
2026-05-08 02:35 19.45321 -99.04701 7960 ft 213 kts 61°
2026-05-08 02:36 19.46010 -99.03211 8729 ft 222 kts 63°
2026-05-08 02:36 19.46654 -99.01825 9829 ft 201 kts 59°
2026-05-08 02:36 19.47429 -99.00615 10530 ft 197 kts 57°
2026-05-08 02:36 19.48184 -98.99404 11061 ft 197 kts 60°
2026-05-08 02:37 19.48892 -98.98152 11496 ft 200 kts 62°
2026-05-08 02:37 19.49598 -98.96877 11927 ft 201 kts 62°
2026-05-08 02:37 19.50306 -98.95611 12345 ft 203 kts 62°
2026-05-08 02:37 19.51031 -98.94317 12752 ft 206 kts 63°
2026-05-08 02:38 19.51764 -98.93006 13120 ft 208 kts 61°
2026-05-08 02:38 19.52506 -98.91686 13564 ft 208 kts 61°
2026-05-08 02:38 19.53257 -98.90377 13924 ft 211 kts 52°
2026-05-08 02:38 19.54286 -98.89173 13964 ft 228 kts 50°
2026-05-08 02:39 19.55338 -98.87949 14479 ft 217 kts 49°
2026-05-08 02:39 19.56341 -98.86797 15011 ft 209 kts 49°
2026-05-08 02:39 19.57344 -98.85635 14995 ft 223 kts 49°
2026-05-08 02:39 19.58421 -98.84391 15088 ft 228 kts 49°
2026-05-08 02:40 19.59448 -98.83211 15721 ft 208 kts 49°
2026-05-08 02:40 19.60420 -98.82090 15940 ft 210 kts 49°
2026-05-08 02:40 19.61454 -98.80893 15847 ft 228 kts 49°
2026-05-08 02:40 19.62514 -98.79670 16202 ft 219 kts 49°
2026-05-08 02:41 19.63508 -98.78522 16589 ft 212 kts 48°
2026-05-08 02:41 19.64554 -98.77314 16477 ft 229 kts 48°
2026-05-08 02:41 19.65635 -98.76064 16658 ft 229 kts 48°
2026-05-08 02:41 19.66674 -98.74866 17248 ft 214 kts 49°
2026-05-08 02:42 19.67683 -98.73699 17310 ft 222 kts 49°
2026-05-08 02:42 19.68775 -98.72434 17264 ft 238 kts 48°
2026-05-08 02:42 19.69862 -98.71180 17833 ft 222 kts 48°
2026-05-08 02:42 19.70988 -98.70131 18126 ft 220 kts 18°
2026-05-08 02:43 19.72585 -98.69767 17701 ft 249 kts 360°
2026-05-08 02:43 19.73693 -98.69748 18187 ft 232 kts 359°
2026-05-08 02:43 19.75225 -98.69715 18831 ft 213 kts
2026-05-08 02:43 19.76741 -98.69622 18726 ft 229 kts
2026-05-08 02:44 19.78399 -98.69498 18657 ft 242 kts
2026-05-08 02:44 19.80486 -98.69352 19339 ft 220 kts
2026-05-08 02:44 19.82022 -98.69251 19345 ft 229 kts
2026-05-08 02:44 19.83136 -98.69178 19184 ft 244 kts
2026-05-08 02:45 19.84826 -98.69064 19426 ft 238 kts
2026-05-08 02:45 19.86413 -98.68955 19964 ft 221 kts
2026-05-08 02:45 19.87945 -98.68853 19909 ft 232 kts
2026-05-08 02:45 19.89658 -98.68740 19770 ft 248 kts
2026-05-08 02:46 19.91296 -98.68627 20305 ft 229 kts
2026-05-08 02:46 19.92854 -98.68521 20545 ft 226 kts
2026-05-08 02:46 19.94507 -98.68413 20265 ft 249 kts
2026-05-08 02:46 19.96238 -98.68438 20372 ft 248 kts 336°
2026-05-08 02:47 19.97814 -98.69099 20694 ft 236 kts 331°
2026-05-08 02:47 19.99251 -98.69850 21038 ft 227 kts 330°
2026-05-08 02:47 20.00715 -98.70594 20922 ft 242 kts 334°
2026-05-08 02:47 20.02292 -98.71281 21028 ft 244 kts 336°
2026-05-08 02:48 20.03820 -98.71915 21507 ft 229 kts 335°
2026-05-08 02:48 20.05307 -98.72553 21480 ft 237 kts 335°
2026-05-08 02:48 20.06891 -98.73246 21330 ft 251 kts 335°
2026-05-08 02:48 20.08473 -98.73928 21804 ft 236 kts 335°
2026-05-08 02:49 20.09942 -98.74559 22096 ft 231 kts 335°
2026-05-08 02:49 20.11493 -98.75235 21793 ft 252 kts 335°
2026-05-08 02:49 20.13128 -98.75943 21997 ft 248 kts 335°
2026-05-08 02:49 20.14665 -98.76602 22584 ft 231 kts 335°
2026-05-08 02:50 20.16178 -98.77259 22443 ft 245 kts 335°
2026-05-08 02:50 20.17820 -98.77975 22273 ft 259 kts 335°
2026-05-08 02:50 20.19428 -98.78666 22885 ft 239 kts 335°
2026-05-08 02:50 20.20945 -98.79320 23023 ft 238 kts 334°
2026-05-08 02:51 20.22570 -98.80031 22613 ft 263 kts 335°
2026-05-08 02:51 20.24260 -98.80762 22958 ft 253 kts 335°
2026-05-08 02:51 20.25826 -98.81434 23538 ft 236 kts 334°
2026-05-08 02:51 20.27360 -98.82103 23280 ft 252 kts 334°
2026-05-08 02:52 20.29049 -98.82841 23091 ft 266 kts 335°
2026-05-08 02:52 20.30697 -98.83547 23740 ft 244 kts 334°
2026-05-08 02:52 20.32235 -98.84212 23916 ft 240 kts 334°
2026-05-08 02:52 20.33863 -98.84927 23504 ft 267 kts 334°
2026-05-08 02:53 20.35604 -98.85683 23626 ft 265 kts 335°
2026-05-08 02:53 20.37244 -98.86386 24206 ft 244 kts 334°
2026-05-08 02:53 20.38803 -98.87063 24218 ft 248 kts 334°
2026-05-08 02:53 20.40480 -98.87801 23891 ft 271 kts 335°
2026-05-08 02:54 20.42216 -98.88463 24285 ft 256 kts 351°
2026-05-08 02:54 20.43969 -98.88390 24504 ft 258 kts 22°
2026-05-08 02:54 20.45586 -98.87435 24256 ft 276 kts 36°
2026-05-08 02:54 20.47083 -98.86265 24630 ft 261 kts 36°
2026-05-08 02:55 20.48714 -98.85542 24724 ft 262 kts 358°
2026-05-08 02:55 20.52474 -98.85917 24813 ft 262 kts 354°
2026-05-08 02:55 20.54229 -98.86012 25176 ft 249 kts 358°
2026-05-08 02:56 20.56045 -98.86031 24723 ft 276 kts 357°
2026-05-08 02:56 20.58027 -98.86071 24537 ft 286 kts 356°
2026-05-08 02:56 20.59940 -98.86132 25144 ft 262 kts 355°
2026-05-08 02:56 20.61703 -98.86190 25478 ft 252 kts 355°
2026-05-08 02:57 20.63530 -98.86253 24982 ft 279 kts 355°
2026-05-08 02:57 20.65534 -98.86316 24785 ft 289 kts 356°
2026-05-08 02:57 20.67459 -98.86367 25417 ft 263 kts 355°
2026-05-08 02:57 20.69232 -98.86418 25721 ft 253 kts 355°
2026-05-08 02:58 20.71080 -98.86484 25225 ft 280 kts 355°
2026-05-08 02:58 20.73088 -98.86549 25113 ft 288 kts 356°
2026-05-08 02:58 20.74990 -98.86600 25648 ft 266 kts 355°
2026-05-08 02:58 20.76805 -98.86652 25828 ft 262 kts 355°
2026-05-08 02:59 20.78687 -98.86718 25418 ft 282 kts 355°
2026-05-08 02:59 20.80687 -98.86782 25346 ft 287 kts 356°
2026-05-08 02:59 20.82618 -98.86835 25766 ft 269 kts 355°
2026-05-08 02:59 20.84469 -98.86890 25882 ft 267 kts 355°
2026-05-08 03:00 20.86379 -98.86955 25585 ft 283 kts 355°
2026-05-08 03:00 20.88360 -98.87017 25614 ft 282 kts 356°
2026-05-08 03:00 20.90277 -98.87072 25908 ft 270 kts 355°
2026-05-08 03:00 20.92149 -98.87130 25891 ft 272 kts 355°
2026-05-08 03:01 20.94085 -98.87193 25677 ft 283 kts 355°
2026-05-08 03:01 20.96064 -98.87254 25661 ft 284 kts 355°
2026-05-08 03:01 20.98006 -98.87311 25885 ft 275 kts 355°
2026-05-08 03:01 20.99905 -98.87369 25962 ft 273 kts 355°
2026-05-08 03:02 21.01828 -98.87431 25841 ft 281 kts 355°
2026-05-08 03:02 21.03759 -98.87492 25819 ft 282 kts 355°
2026-05-08 03:02 21.05705 -98.87550 25949 ft 277 kts 355°
2026-05-08 03:02 21.07612 -98.87608 26086 ft 273 kts 355°
2026-05-08 03:03 21.09548 -98.87671 25965 ft 287 kts 355°
2026-05-08 03:03 21.11580 -98.87736 25938 ft 296 kts 355°
2026-05-08 03:03 21.13661 -98.87799 26035 ft 302 kts 355°
2026-05-08 03:03 21.15788 -98.87864 26082 ft 311 kts 355°
2026-05-08 03:04 21.17995 -98.87933 26071 ft 324 kts 355°
2026-05-08 03:04 21.20291 -98.88005 26070 ft 335 kts 356°
2026-05-08 03:04 21.22654 -98.88078 26152 ft 345 kts 356°
2026-05-08 03:04 21.25091 -98.88153 26226 ft 355 kts 356°
2026-05-08 03:05 21.27601 -98.88231 26312 ft 366 kts 356°
2026-05-08 03:05 21.30182 -98.88311 26376 ft 377 kts 356°
2026-05-08 03:05 21.32838 -98.88394 26425 ft 388 kts 356°
2026-05-08 03:05 21.35569 -98.88478 26492 ft 399 kts 356°
2026-05-08 03:06 21.38384 -98.88566 26555 ft 410 kts 356°
2026-05-08 03:06 21.41230 -98.88654 26595 ft 420 kts 356°
2026-05-08 03:06 21.44187 -98.88747 26645 ft 431 kts 356°
2026-05-08 03:06 21.47219 -98.88841 26681 ft 441 kts 356°
2026-05-08 03:07 21.50311 -98.88937 26767 ft 449 kts 356°
2026-05-08 03:07 21.53461 -98.89034 26938 ft 456 kts 356°
2026-05-08 03:07 21.56647 -98.89133 27122 ft 461 kts 356°
2026-05-08 03:07 21.59868 -98.89234 27366 ft 464 kts 356°
2026-05-08 03:08 21.63110 -98.89335 27625 ft 467 kts 356°
2026-05-08 03:08 21.66366 -98.89437 27902 ft 470 kts 356°
2026-05-08 03:08 21.69641 -98.89538 28188 ft 471 kts 356°
2026-05-08 03:08 21.72924 -98.89641 28476 ft 473 kts 356°
2026-05-08 03:09 21.76220 -98.89744 28789 ft 475 kts 356°
2026-05-08 03:09 21.79528 -98.89848 29098 ft 476 kts 356°
2026-05-08 03:09 21.82803 -98.89950 29395 ft 478 kts 356°
2026-05-08 03:09 21.86172 -98.90055 29715 ft 479 kts 356°
2026-05-08 03:10 21.89505 -98.90159 30010 ft 480 kts 355°
2026-05-08 03:10 21.92804 -98.90263 30267 ft 481 kts 355°
2026-05-08 03:10 21.96159 -98.90368 30527 ft 482 kts 355°
2026-05-08 03:10 21.99516 -98.90473 30786 ft 484 kts 355°
2026-05-08 03:11 22.02885 -98.90579 31055 ft 485 kts 355°
2026-05-08 03:11 22.06258 -98.90685 31307 ft 486 kts 355°
2026-05-08 03:11 22.09648 -98.90791 31563 ft 488 kts 355°
2026-05-08 03:11 22.13040 -98.90898 31818 ft 489 kts 355°
2026-05-08 03:12 22.16452 -98.91005 32072 ft 491 kts 355°
2026-05-08 03:12 22.19866 -98.91112 32316 ft 492 kts 355°
2026-05-08 03:12 22.23300 -98.91220 32572 ft 494 kts 354°
2026-05-08 03:12 22.26740 -98.91329 32807 ft 495 kts 354°
2026-05-08 03:13 22.30141 -98.91436 33062 ft 497 kts 354°
2026-05-08 03:13 22.33591 -98.91544 33430 ft 495 kts 354°
2026-05-08 03:13 22.37032 -98.91652 33785 ft 494 kts 354°
2026-05-08 03:13 22.40469 -98.91761 34095 ft 493 kts 354°
2026-05-08 03:14 22.43896 -98.91869 34381 ft 493 kts 354°
2026-05-08 03:14 22.47315 -98.91977 34666 ft 492 kts 354°
2026-05-08 03:14 22.50746 -98.92085 34939 ft 492 kts 354°
2026-05-08 03:14 22.54164 -98.92193 35230 ft 492 kts 354°
2026-05-08 03:15 22.57587 -98.92301 35493 ft 492 kts 354°
2026-05-08 03:15 22.61010 -98.92410 35760 ft 492 kts 354°
2026-05-08 03:15 22.64432 -98.92518 36019 ft 492 kts 354°
2026-05-08 03:15 22.67857 -98.92626 36279 ft 492 kts 354°
2026-05-08 03:16 22.71231 -98.92733 36536 ft 492 kts 354°
2026-05-08 03:16 22.74654 -98.92842 36801 ft 492 kts 354°
2026-05-08 03:16 22.78068 -98.92950 37058 ft 491 kts 354°
2026-05-08 03:16 22.81481 -98.93058 37326 ft 491 kts 354°
2026-05-08 03:17 22.84900 -98.93166 37573 ft 491 kts 354°
2026-05-08 03:17 22.88312 -98.93275 37848 ft 490 kts 353°
2026-05-08 03:17 22.91733 -98.93385 37888 ft 495 kts 354°
2026-05-08 03:18 22.98638 -98.93603 37601 ft 495 kts 354°
2026-05-08 03:18 23.02080 -98.93711 37343 ft 494 kts 353°
2026-05-08 03:18 23.05509 -98.93821 37056 ft 493 kts 353°
2026-05-08 03:18 23.08925 -98.93930 36945 ft 486 kts 353°
2026-05-08 03:19 23.12285 -98.94035 36942 ft 481 kts 353°
2026-05-08 03:19 23.18957 -98.94251 36954 ft 478 kts 353°
2026-05-08 03:20 23.25551 -98.94460 36963 ft 477 kts 353°
2026-05-08 03:20 23.32184 -98.94673 36956 ft 476 kts 353°
2026-05-08 03:21 23.38807 -98.94885 36964 ft 476 kts 353°
2026-05-08 03:21 23.45430 -98.95097 36964 ft 476 kts 353°
2026-05-08 03:22 23.52047 -98.95309 36972 ft 476 kts 353°
2026-05-08 03:22 23.58664 -98.95521 36970 ft 475 kts 353°
2026-05-08 03:23 23.65229 -98.95732 36966 ft 475 kts 353°
2026-05-08 03:23 23.71819 -98.96040 36979 ft 472 kts 348°
2026-05-08 03:24 23.78346 -98.96828 36984 ft 472 kts 348°
2026-05-08 03:24 23.84874 -98.97592 36979 ft 471 kts 348°
2026-05-08 03:25 23.91394 -98.98365 36980 ft 471 kts 348°
2026-05-08 03:25 23.97918 -98.99137 36981 ft 471 kts 348°
2026-05-08 03:26 24.04391 -98.99903 36980 ft 471 kts 348°
2026-05-08 03:26 24.10917 -99.00678 36978 ft 472 kts 348°
2026-05-08 03:27 24.17459 -99.01455 36982 ft 474 kts 348°
2026-05-08 03:27 24.24027 -99.02235 36981 ft 475 kts 348°
2026-05-08 03:28 24.30592 -99.03016 36984 ft 475 kts 348°
2026-05-08 03:28 24.37161 -99.03799 36993 ft 475 kts 348°
2026-05-08 03:29 24.43694 -99.04578 36999 ft 475 kts 348°
2026-05-08 03:29 24.50264 -99.05362 37000 ft 475 kts 348°
2026-05-08 03:30 24.60133 -99.06542 37004 ft 475 kts 348°
2026-05-08 03:31 24.73297 -99.08117 37019 ft 476 kts 348°
2026-05-08 03:32 24.83145 -99.09299 36993 ft 480 kts 348°
2026-05-08 03:32 24.89794 -99.10098 36987 ft 480 kts 348°
2026-05-08 03:33 24.96432 -99.10895 36990 ft 479 kts 348°
2026-05-08 03:33 25.03062 -99.11692 36986 ft 479 kts 348°
2026-05-08 03:34 25.09699 -99.12491 36987 ft 480 kts 347°
2026-05-08 03:34 25.16305 -99.13286 36983 ft 481 kts 347°
2026-05-08 03:35 25.22953 -99.14088 36984 ft 481 kts 347°
2026-05-08 03:35 25.29925 -99.14929 36982 ft 481 kts 347°
2026-05-08 03:36 25.36573 -99.15733 36997 ft 481 kts 347°
2026-05-08 03:36 25.43240 -99.16540 36976 ft 482 kts 348°
2026-05-08 03:37 25.49907 -99.17347 36984 ft 482 kts 348°
2026-05-08 03:37 25.56582 -99.18156 36982 ft 482 kts 348°
2026-05-08 03:38 25.63249 -99.18966 36981 ft 482 kts 348°
2026-05-08 03:38 25.69881 -99.19771 36979 ft 482 kts 347°
2026-05-08 03:39 25.76559 -99.20584 36980 ft 483 kts 347°
2026-05-08 03:39 25.83232 -99.21398 36980 ft 483 kts 347°
2026-05-08 03:40 25.88787 -99.22077 36981 ft 483 kts 347°
2026-05-08 03:40 25.95471 -99.22894 36982 ft 483 kts 347°
2026-05-08 03:41 26.03249 -99.23848 36984 ft 485 kts 346°
2026-05-08 03:41 26.08860 -99.24534 36990 ft 485 kts 346°
2026-05-08 03:42 26.15578 -99.25359 36994 ft 485 kts 346°
2026-05-08 03:42 26.22240 -99.26177 36991 ft 485 kts 346°
2026-05-08 03:43 26.28952 -99.27003 36984 ft 486 kts 345°
2026-05-08 03:43 26.35673 -99.27831 36985 ft 486 kts 345°
2026-05-08 03:43 26.39049 -99.28247 37103 ft 488 kts 345°
2026-05-08 03:44 26.42426 -99.28665 37281 ft 490 kts 345°
2026-05-08 03:44 26.45831 -99.29017 37456 ft 493 kts 347°
2026-05-08 03:44 26.49255 -99.29318 37627 ft 494 kts 347°
2026-05-08 03:44 26.52682 -99.29650 37806 ft 495 kts 347°
2026-05-08 03:45 26.56070 -99.29969 37976 ft 496 kts 347°
2026-05-08 03:45 26.62903 -99.30569 37972 ft 488 kts 346°
2026-05-08 03:46 26.69652 -99.31199 37971 ft 486 kts 346°
2026-05-08 03:46 26.76384 -99.31807 37996 ft 484 kts 346°
2026-05-08 03:47 26.82857 -99.32402 37985 ft 483 kts 346°
2026-05-08 03:47 26.89556 -99.33015 38000 ft 483 kts 346°
2026-05-08 03:48 26.96219 -99.33795 38010 ft 479 kts 342°
2026-05-08 03:48 27.02824 -99.34821 38009 ft 479 kts 343°
2026-05-08 03:49 27.09434 -99.35830 37999 ft 479 kts 342°
2026-05-08 03:49 27.15909 -99.36831 37994 ft 480 kts 343°
2026-05-08 03:50 27.22545 -99.37852 37971 ft 482 kts 342°
2026-05-08 03:50 27.29196 -99.38879 37963 ft 482 kts 342°
2026-05-08 03:51 27.35845 -99.39906 37962 ft 483 kts 342°
2026-05-08 03:51 27.42503 -99.40936 38006 ft 483 kts 342°
2026-05-08 03:52 27.49204 -99.41755 38035 ft 493 kts 352°
2026-05-08 03:52 27.56094 -99.41653 38016 ft 495 kts 352°
2026-05-08 03:53 27.62935 -99.41562 38020 ft 495 kts 352°
2026-05-08 03:53 27.69826 -99.41468 38005 ft 495 kts 352°
2026-05-08 03:54 27.76723 -99.41372 37980 ft 496 kts 351°
2026-05-08 03:54 27.83629 -99.41279 37980 ft 497 kts 352°
2026-05-08 03:55 27.90547 -99.41182 37978 ft 497 kts 352°
2026-05-08 03:55 27.97469 -99.41088 37977 ft 497 kts 352°
2026-05-08 03:56 28.04388 -99.40991 37985 ft 497 kts 352°
2026-05-08 03:56 28.11264 -99.40897 37976 ft 497 kts 351°
2026-05-08 03:57 28.18181 -99.40801 37973 ft 497 kts 351°
2026-05-08 03:57 28.25104 -99.40706 37977 ft 497 kts 351°
2026-05-08 03:58 28.32028 -99.40609 37980 ft 497 kts 351°
2026-05-08 03:58 28.38956 -99.40514 37978 ft 499 kts 351°
2026-05-08 03:59 28.45894 -99.40416 37983 ft 499 kts 351°
2026-05-08 03:59 28.52839 -99.40320 37985 ft 499 kts 351°
2026-05-08 04:00 28.59737 -99.40224 37989 ft 499 kts 351°
2026-05-08 04:00 28.66692 -99.40128 37996 ft 500 kts 351°
2026-05-08 04:01 28.73661 -99.40029 37998 ft 501 kts 351°
2026-05-08 04:01 28.80627 -99.39932 38007 ft 501 kts 351°
2026-05-08 04:02 28.87593 -99.39834 38007 ft 501 kts 351°
2026-05-08 04:02 28.94564 -99.39736 37999 ft 500 kts 350°
2026-05-08 04:03 29.01460 -99.39638 38004 ft 498 kts 350°
2026-05-08 04:03 29.11848 -99.39493 38015 ft 498 kts 350°
2026-05-08 04:04 29.18770 -99.39396 38021 ft 498 kts 350°
2026-05-08 04:04 29.25687 -99.39297 38028 ft 496 kts 350°
2026-05-08 04:05 29.32584 -99.39201 38028 ft 495 kts 350°
2026-05-08 04:05 29.39477 -99.39103 38028 ft 495 kts 350°
2026-05-08 04:06 29.46370 -99.39005 38027 ft 495 kts 350°
2026-05-08 04:06 29.53212 -99.38908 38026 ft 494 kts 349°
2026-05-08 04:07 29.60079 -99.38810 38028 ft 493 kts 349°
2026-05-08 04:07 29.66933 -99.38714 38025 ft 493 kts 349°
2026-05-08 04:08 29.73786 -99.38615 38036 ft 492 kts 349°
2026-05-08 04:08 29.80639 -99.38519 38030 ft 493 kts 349°
2026-05-08 04:09 29.87482 -99.38419 38034 ft 492 kts 349°
2026-05-08 04:09 29.94281 -99.38323 38034 ft 492 kts 349°
2026-05-08 04:10 30.01126 -99.38224 38033 ft 492 kts 349°
2026-05-08 04:10 30.07971 -99.38126 38037 ft 492 kts 348°
2026-05-08 04:11 30.14811 -99.38028 38029 ft 492 kts 349°
2026-05-08 04:11 30.21653 -99.37930 38027 ft 492 kts 349°
2026-05-08 04:12 30.28492 -99.37831 38031 ft 492 kts 349°
2026-05-08 04:12 30.35286 -99.37733 38024 ft 492 kts 349°
2026-05-08 04:13 30.42130 -99.37634 38024 ft 492 kts 349°
2026-05-08 04:13 30.48969 -99.37535 38026 ft 491 kts 349°
2026-05-08 04:14 30.55808 -99.37436 38019 ft 491 kts 349°
2026-05-08 04:14 30.62642 -99.37336 38067 ft 491 kts 348°
2026-05-08 04:15 30.69444 -99.37238 38025 ft 492 kts 348°
2026-05-08 04:15 30.76283 -99.37138 38026 ft 492 kts 348°
2026-05-08 04:16 30.83127 -99.37039 38029 ft 492 kts 348°
2026-05-08 04:16 30.89971 -99.36939 38030 ft 492 kts 348°
2026-05-08 04:17 30.96822 -99.36839 38056 ft 493 kts 348°
2026-05-08 04:17 31.03678 -99.36738 38069 ft 492 kts 348°
2026-05-08 04:18 31.10482 -99.36639 38079 ft 492 kts 348°
2026-05-08 04:18 31.17320 -99.36538 38077 ft 492 kts 348°
2026-05-08 04:19 31.24177 -99.36438 38078 ft 492 kts 348°
2026-05-08 04:19 31.31028 -99.36336 38069 ft 492 kts 348°
2026-05-08 04:20 31.37868 -99.36236 38051 ft 492 kts 348°
2026-05-08 04:20 31.44707 -99.36149 38036 ft 488 kts 345°
2026-05-08 04:21 31.48025 -99.36528 38040 ft 471 kts 335°
2026-05-08 04:21 31.51138 -99.37457 38035 ft 454 kts 326°
2026-05-08 04:21 31.56843 -99.40223 38023 ft 445 kts 323°
2026-05-08 04:22 31.62538 -99.43069 38022 ft 445 kts 323°
2026-05-08 04:22 31.68236 -99.45922 38087 ft 445 kts 323°
2026-05-08 04:23 31.73930 -99.48779 38080 ft 446 kts 323°
2026-05-08 04:23 31.79632 -99.51640 38101 ft 445 kts 323°
2026-05-08 04:24 31.85323 -99.54503 38097 ft 445 kts 323°
2026-05-08 04:24 31.90972 -99.57347 38085 ft 444 kts 323°
2026-05-08 04:25 31.96659 -99.60214 38067 ft 444 kts 323°
2026-05-08 04:25 32.02339 -99.63082 38050 ft 445 kts 323°
2026-05-08 04:26 32.08023 -99.65954 38033 ft 444 kts 323°
2026-05-08 04:26 32.13696 -99.68827 38020 ft 444 kts 323°
2026-05-08 04:27 32.19375 -99.71705 38017 ft 444 kts 323°
2026-05-08 04:27 32.25013 -99.74567 38048 ft 444 kts 323°
2026-05-08 04:28 32.30694 -99.77455 38014 ft 445 kts 323°
2026-05-08 04:28 32.36376 -99.80346 38059 ft 444 kts 323°
2026-05-08 04:29 32.42052 -99.83240 38055 ft 444 kts 323°
2026-05-08 04:29 32.47719 -99.86139 38055 ft 441 kts 321°
2026-05-08 04:30 32.53042 -99.89510 38047 ft 434 kts 317°
2026-05-08 04:30 32.58353 -99.92913 38036 ft 433 kts 317°
2026-05-08 04:31 32.63649 -99.96335 38018 ft 433 kts 317°
2026-05-08 04:31 32.68903 -99.99724 38000 ft 433 kts 317°
2026-05-08 04:32 32.74188 -100.03141 37981 ft 432 kts 317°
2026-05-08 04:32 32.79475 -100.06564 37989 ft 433 kts 317°
2026-05-08 04:33 32.84761 -100.09989 37994 ft 432 kts 317°
2026-05-08 04:33 32.90034 -100.13413 37987 ft 432 kts 317°
2026-05-08 04:34 32.95308 -100.16840 37982 ft 431 kts 317°
2026-05-08 04:34 33.00573 -100.20267 37978 ft 431 kts 317°
2026-05-08 04:35 33.05833 -100.23696 37976 ft 431 kts 317°
2026-05-08 04:35 33.11057 -100.27105 37977 ft 431 kts 317°
2026-05-08 04:36 33.16312 -100.30540 37975 ft 430 kts 317°
2026-05-08 04:36 33.21556 -100.33972 37971 ft 430 kts 317°
2026-05-08 04:37 33.26795 -100.37406 37988 ft 431 kts 317°
2026-05-08 04:37 33.32012 -100.40828 37975 ft 431 kts 317°
2026-05-08 04:38 33.37262 -100.44278 37976 ft 430 kts 317°
2026-05-08 04:38 33.42507 -100.47730 37969 ft 430 kts 317°
2026-05-08 04:39 33.47748 -100.51184 37976 ft 430 kts 317°
2026-05-08 04:39 33.52989 -100.54644 37972 ft 430 kts 317°
2026-05-08 04:40 33.58227 -100.58104 37979 ft 430 kts 318°
2026-05-08 04:40 33.63458 -100.61566 37973 ft 429 kts 317°
2026-05-08 04:41 33.68651 -100.65007 37974 ft 429 kts 317°
2026-05-08 04:41 33.73880 -100.68477 37971 ft 429 kts 317°
2026-05-08 04:42 33.79105 -100.71951 37969 ft 430 kts 318°
2026-05-08 04:42 33.84332 -100.75426 37968 ft 429 kts 318°
2026-05-08 04:43 33.89553 -100.78906 37967 ft 429 kts 318°
2026-05-08 04:43 33.94767 -100.82383 37965 ft 428 kts 318°
2026-05-08 04:44 33.99940 -100.85840 37999 ft 428 kts 318°
2026-05-08 04:44 34.05144 -100.89322 37964 ft 428 kts 318°
2026-05-08 04:45 34.10352 -100.92810 37972 ft 428 kts 318°
2026-05-08 04:45 34.15547 -100.96296 37973 ft 427 kts 318°
2026-05-08 04:46 34.20738 -100.99784 37965 ft 427 kts 318°
2026-05-08 04:46 34.25889 -101.03251 37952 ft 427 kts 319°
2026-05-08 04:47 34.31072 -101.06741 37958 ft 426 kts 319°
2026-05-08 04:47 34.36249 -101.10237 37954 ft 426 kts 319°
2026-05-08 04:48 34.41419 -101.13732 37953 ft 426 kts 319°